Location: Big Spring State Park
(32.2296°N, 101.4897°W)
Time: 15:04:29
(UTC-06:00)

Amateur Radio Satellites - All Passes

Search period start: 19 January 2018 14:34
Search period end: 20 January 2018 14:34
Location: Big Spring State Park, 32.2296°N, 101.4897°W

Satellite Date Start Highest point End Downlink Frequencies (MHz)
Time Altitude Azimuth
SO-50 19 Jan 14:44:46 14:48:23 21° 53° (NE) 14:52:01 436.795
RS-15 19 Jan 14:51:27 14:53:46 11° 13° (NNE) 14:56:03 29.354- 29.394
JUGNU 19 Jan 14:52:36 14:56:48 20° 189° (S) 15:01:01 437.505
ITAMSAT 1 19 Jan 14:57:18 15:01:13 22° 68° (ENE) 15:05:10 435.822/435.867
VELOX 1 19 Jan 14:59:03 15:00:24 11° 294° (WNW) 15:01:46 145.980
MOZHAYETS 4 19 Jan 14:59:18 15:02:32 19° 95° (E) 15:05:45
Gurwin Techsat 1B 19 Jan 15:07:40 15:10:58 17° 266° (W) 15:14:17 435.225
SRMSAT 19 Jan 15:09:09 15:13:44 23° 174° (S) 15:18:20 437.500
UKube-1 19 Jan 15:09:18 15:13:37 81° 284° (WNW) 15:17:54 .
DX 1 19 Jan 15:17:58 15:21:55 35° 288° (WNW) 15:25:53 434.975-435.025
AO-7 19 Jan 15:20:39 15:28:58 81° 71° (ENE) 15:37:22 .
50 SAT 19 Jan 15:35:54 15:37:21 13° 289° (WNW) 15:38:47 437.505
DOVE 4 19 Jan 15:43:08 15:44:21 11° 68° (ENE) 15:45:33 437.250
ITUPSAT 1 19 Jan 15:49:21 15:53:47 36° 99° (E) 15:58:13 437.325
SO-50 19 Jan 16:24:34 16:28:54 36° 247° (WSW) 16:33:17 436.795
NO-84 19 Jan 16:24:43 16:26:02 12° 124° (SE) 16:27:20 435.350 FM
BEESAT 19 Jan 16:29:51 16:34:39 75° 284° (WNW) 16:39:25 436.000
CUBESAT XI-V 19 Jan 16:34:04 16:38:34 51° 100° (E) 16:43:00 437.345
MOZHAYETS 4 19 Jan 16:35:34 16:39:40 32° 288° (WNW) 16:43:45
ITAMSAT 1 19 Jan 16:35:45 16:40:25 35° 262° (W) 16:45:07 435.822/435.867
M-CUBED/EXP-1 PRIME 19 Jan 16:42:23 16:46:53 87° 250° (WSW) 16:51:08 437.505
JUGNU 19 Jan 16:43:40 16:45:09 11° 198° (SSW) 16:46:39 437.505
SRMSAT 19 Jan 16:57:39 17:02:21 24° 184° (S) 17:07:03 437.500
RS-15 19 Jan 17:01:30 17:11:44 33° 46° (NE) 17:21:27 29.354- 29.394
HO-68 19 Jan 17:07:18 17:08:00 10° 56° (ENE) 17:08:42 435.675
XW-2B 19 Jan 17:11:05 17:12:54 13° 69° (ENE) 17:14:42 145.730 - 145.750
DOVE 4 19 Jan 17:17:23 17:21:38 47° 260° (W) 17:25:44 437.250
AO-7 19 Jan 17:17:26 17:22:21 17° 266° (W) 17:27:20 .
ITUPSAT 1 19 Jan 17:27:59 17:31:17 19° 292° (WNW) 17:34:35 437.325
LilacSat-2 19 Jan 17:35:21 17:38:46 31° 74° (ENE) 17:42:11 437.200
XW-2C 19 Jan 17:39:30 17:42:56 31° 74° (ENE) 17:46:21 145.795 - 145.815
CUTE-I 19 Jan 17:57:35 18:02:40 48° 73° (ENE) 18:07:45 437.470
NO-84 19 Jan 18:00:07 18:02:59 32° 314° (NW) 18:05:42 435.350 FM
CUBESAT XI-V 19 Jan 18:13:33 18:15:25 12° 294° (WNW) 18:17:17 437.345
KKS-1 19 Jan 18:14:55 18:19:23 86° 286° (WNW) 18:23:51 437.445
XW-2F 19 Jan 18:16:53 18:20:42 82° 259° (W) 18:24:31 145.980 - 146.000
KAITUO 1B 19 Jan 18:17:50 18:21:36 74° 76° (ENE) 18:25:21 145.475/437.950
XW-2D 19 Jan 18:25:23 18:29:07 53° 260° (W) 18:32:53 145.860 - 145.880
NUDT-PHONESAT 19 Jan 18:31:34 18:35:18 75° 260° (W) 18:39:02 437.300
STARS 19 Jan 18:35:08 18:39:29 57° 101° (E) 18:43:50 437.465
XW-2B 19 Jan 18:43:16 18:46:42 32° 262° (W) 18:50:10 145.730 - 145.750
SRMSAT 19 Jan 18:47:18 18:50:55 16° 194° (SSW) 18:54:32 437.500
HO-68 19 Jan 18:47:22 18:54:28 71° 73° (ENE) 19:01:35 435.675
AAUSAT CUBESAT 2 19 Jan 18:52:39 18:54:47 14° 69° (ENE) 18:56:54 437.432
STRAND 1 19 Jan 18:58:12 19:00:04 12° 93° (E) 19:01:56 437.568
SEEDS 19 Jan 19:04:22 19:08:28 52° 75° (ENE) 19:12:34 437.485
CUBEBUG 2 19 Jan 19:11:07 19:15:22 68° 77° (ENE) 19:19:47 437.445
LilacSat-2 19 Jan 19:11:09 19:13:02 13° 266° (W) 19:14:57 437.200
RS-15 19 Jan 19:13:32 19:24:52 66° 248° (WSW) 19:35:40 29.354- 29.394
CUTE 1.7 + AOD 2 19 Jan 19:13:57 19:18:10 64° 259° (W) 19:22:25 437.475
XW-2C 19 Jan 19:15:24 19:17:08 13° 266° (W) 19:18:51 145.795 - 145.815
XW-2A 19 Jan 19:15:34 19:18:00 18° 72° (ENE) 19:20:26 145.665 - 145.685
UWE-3 19 Jan 19:19:36 19:23:44 44° 74° (ENE) 19:28:00 435.000/436.395/437.385
CUTE-I 19 Jan 19:39:37 19:42:53 16° 266° (W) 19:46:09 437.470
FO-29 19 Jan 19:45:19 19:48:00 14° 94° (E) 19:50:43 435.910
ZACube-1 19 Jan 19:46:25 19:50:36 45° 74° (ENE) 19:54:53 437.345
AO-73 19 Jan 19:54:01 19:58:15 48° 75° (ENE) 20:02:35 145.935
BEESAT 3 19 Jan 20:03:21 20:07:15 80° 241° (WSW) 20:11:03 437.485
PCSat 19 Jan 20:03:50 20:09:09 55° 62° (ENE) 20:14:25 145.827
STARS 19 Jan 20:14:28 20:15:16 10° 294° (WNW) 20:16:04 437.465
AAUSAT CUBESAT 2 19 Jan 20:26:03 20:29:52 36° 262° (W) 20:33:41 437.432
Oscar 11 19 Jan 20:28:48 20:33:07 77° 78° (ENE) 20:37:30 .
STRAND 1 19 Jan 20:34:28 20:39:32 61° 286° (WNW) 20:44:36 437.568
HO-68 19 Jan 20:38:24 20:42:38 16° 266° (W) 20:46:54 435.675
nSIGHT-1 19 Jan 20:44:00 20:47:07 67° 133° (SE) 20:50:16 .
BEESAT 2 19 Jan 20:47:51 20:51:51 75° 63° (ENE) 20:55:45 435.950
XW-2A 19 Jan 20:48:16 20:50:32 17° 264° (W) 20:52:49 145.665 - 145.685
ISS 19 Jan 20:51:42 20:54:50 49° 133° (SE) 20:57:59 437.550
UWE-3 19 Jan 20:58:35 21:00:22 12° 268° (W) 21:02:12 435.000/436.395/437.385
DELFI C3 19 Jan 21:15:20 21:19:01 40° 75° (ENE) 21:22:41 145.870
ZACube-1 19 Jan 21:25:15 21:27:04 12° 268° (W) 21:28:53 437.345
FO-29 19 Jan 21:28:23 21:33:21 48° 286° (WNW) 21:38:25 435.910
AO-85 19 Jan 21:29:49 21:34:22 33° 57° (ENE) 21:39:06 145.980
AO-73 19 Jan 21:33:14 21:34:41 11° 268° (W) 21:36:09 145.935
TIGRISAT 19 Jan 21:40:58 21:44:35 22° 95° (E) 21:48:09 435.000
PCSat 19 Jan 21:48:58 21:51:59 15° 256° (WSW) 21:55:00 145.827
UNISAT 6 19 Jan 21:55:20 21:59:38 35° 98° (E) 22:03:54 437.425
Max Valier Satellite 19 Jan 22:10:42 22:14:19 51° 260° (W) 22:17:58 145.860
nSIGHT-1 19 Jan 22:22:29 22:23:35 11° 329° (NNW) 22:24:41 .
LO-87 19 Jan 22:24:55 22:26:17 12° 69° (ENE) 22:27:41 145.935 - 145.965
ISS 19 Jan 22:29:38 22:31:30 14° 327° (NNW) 22:33:23 437.550
PRISM 19 Jan 22:32:12 22:34:36 15° 95° (E) 22:36:59 437.425
ESTCUBE 1 19 Jan 22:32:43 22:35:29 16° 68° (ENE) 22:38:14 437.505/2401.250
EO-88 19 Jan 22:32:44 22:36:11 39° 261° (W) 22:39:38 145.990 - 145.960
YUBILEINY 19 Jan 22:36:26 22:43:16 26° 84° (E) 22:50:04 435.215
DELFI C3 19 Jan 22:53:37 22:53:51 10° 267° (W) 22:54:06 145.870
AO-85 19 Jan 23:10:23 23:14:40 27° 249° (WSW) 23:19:06 145.980
TIGRISAT 19 Jan 23:17:08 23:21:11 29° 288° (WNW) 23:25:12 435.000
UNISAT 6 19 Jan 23:32:46 23:36:01 19° 291° (WNW) 23:39:14 437.425
EO-79 19 Jan 23:36:30 23:37:34 11° 93° (E) 23:38:39 145.935-145.965
AIST 2D 19 Jan 23:40:48 23:44:10 51° 100° (E) 23:47:31 435.315
LO-87 19 Jan 23:56:15 23:59:20 29° 262° (W) 00:02:29 145.935 - 145.965
PRISM 20 Jan 00:06:17 00:09:52 30° 287° (WNW) 00:13:27 437.425
ESTCUBE 1 20 Jan 00:07:43 00:11:55 37° 261° (W) 00:16:08 437.505/2401.250
POLYITAN 1 20 Jan 00:08:45 00:12:30 28° 97° (E) 00:16:12 437.675
VELOX 1 20 Jan 00:13:03 00:16:38 25° 71° (ENE) 00:20:13 145.980
SPROUT 20 Jan 00:18:32 00:22:40 57° 76° (ENE) 00:26:50 437.525
NANOSAT C BR1 20 Jan 00:25:18 00:29:19 40° 99° (E) 00:33:18 145.865
YUBILEINY 20 Jan 00:30:48 00:39:24 56° 280° (W) 00:48:02 435.215
O/OREOS (USA 219) 20 Jan 00:33:02 00:37:08 34° 103° (ESE) 00:41:11 437.305
NO-84 20 Jan 00:37:37 00:38:11 10° 39° (NE) 00:38:45 435.350 FM
QB50P2 20 Jan 00:37:53 00:42:11 79° 103° (ESE) 00:46:27 145.880/145.840
EO-79 20 Jan 01:09:24 01:13:30 46° 286° (WNW) 01:17:35 145.935-145.965
DUCHIFAT 1 20 Jan 01:09:32 01:13:45 65° 284° (WNW) 01:17:56 145.980
AO-91 20 Jan 01:25:52 01:29:44 26° 98° (E) 01:33:53 145.960
POLYITAN 1 20 Jan 01:45:02 01:48:00 19° 290° (WNW) 01:50:58 437.675
Gurwin Techsat 1B 20 Jan 01:47:11 01:51:41 27° 97° (E) 01:56:08 435.225
VELOX 1 20 Jan 01:49:34 01:52:57 22° 263° (W) 01:56:21 145.980
50 SAT 20 Jan 01:53:55 01:56:56 60° 77° (ENE) 01:59:59 437.505
MOZHAYETS 4 20 Jan 01:58:37 01:59:47 11° 66° (ENE) 02:00:58
UKube-1 20 Jan 01:58:47 02:02:51 43° 74° (ENE) 02:06:56 .
NANOSAT C BR1 20 Jan 02:02:30 02:04:36 14° 292° (WNW) 02:06:41 145.865
DX 1 20 Jan 02:08:00 02:12:20 79° 258° (WSW) 02:16:40 434.975-435.025
Oscar 19 20 Jan 02:09:39 02:14:48 65° 102° (ESE) 02:19:53 437.125/150
NO-84 20 Jan 02:12:37 02:15:27 43° 232° (SW) 02:18:28 435.350 FM
O/OREOS (USA 219) 20 Jan 02:13:34 02:16:34 17° 298° (WNW) 02:19:35 437.305
BUGSAT 1 20 Jan 02:15:21 02:19:28 51° 285° (WNW) 02:23:35 437.445
ITUPSAT 1 20 Jan 02:51:44 02:55:38 26° 70° (ENE) 02:59:33 437.325
AO-91 20 Jan 03:02:14 03:06:01 26° 287° (WNW) 03:10:05 145.960
nSIGHT-1 20 Jan 03:16:20 03:16:48 10° 30° (NNE) 03:17:16 .
ITAMSAT 1 20 Jan 03:16:58 03:18:05 11° 92° (E) 03:19:12 435.822/435.867
Gurwin Techsat 1B 20 Jan 03:26:58 03:31:30 29° 290° (WNW) 03:36:01 435.225
AO-7 20 Jan 03:28:15 03:35:46 36° 100° (E) 03:43:12 .
BEESAT 20 Jan 03:31:10 03:35:54 73° 75° (ENE) 03:40:39 436.000
MOZHAYETS 4 20 Jan 03:31:48 03:36:21 60° 259° (W) 03:40:57
CUBESAT XI-V 20 Jan 03:32:41 03:36:44 29° 72° (ENE) 03:40:47 437.345
UKube-1 20 Jan 03:37:27 03:39:00 12° 266° (W) 03:40:35 .
Oscar 19 20 Jan 03:51:28 03:53:28 12° 296° (WNW) 03:55:29 437.125/150
FALCONSAT 3 20 Jan 04:15:55 04:19:22 40° 155° (SSE) 04:22:49 435.103
ITUPSAT 1 20 Jan 04:29:22 04:33:18 26° 263° (W) 04:37:17 437.325
nSIGHT-1 20 Jan 04:50:09 04:53:20 83° 224° (SW) 04:56:30 .
ITAMSAT 1 20 Jan 04:52:43 04:57:53 68° 285° (WNW) 05:03:03 435.822/435.867
SO-50 20 Jan 04:55:18 04:58:12 17° 109° (ESE) 05:01:07 436.795
ISS 20 Jan 04:59:21 05:02:37 76° 44° (NE) 05:05:53 437.550
KKS-1 20 Jan 05:08:04 05:12:17 46° 74° (ENE) 05:16:31 437.445
CUBESAT XI-V 20 Jan 05:10:28 05:14:02 21° 265° (W) 05:17:36 437.345
DOVE 4 20 Jan 05:19:45 05:24:06 60° 101° (E) 05:28:42 437.250
AO-7 20 Jan 05:20:44 05:28:27 43° 295° (WNW) 05:36:08 .
STARS 20 Jan 05:27:18 05:30:58 27° 71° (ENE) 05:34:38 437.465
FALCONSAT 3 20 Jan 05:54:43 05:58:22 64° 348° (NNW) 06:02:01 435.103
XW-2F 20 Jan 05:54:55 05:56:47 13° 94° (E) 05:58:39 145.980 - 146.000
M-CUBED/EXP-1 PRIME 20 Jan 05:59:52 06:03:03 47° 289° (WNW) 06:06:10 437.505
XW-2D 20 Jan 06:02:58 06:05:47 20° 96° (E) 06:08:34 145.860 - 145.880
NUDT-PHONESAT 20 Jan 06:07:34 06:09:22 13° 94° (E) 06:11:10 437.300
STRAND 1 20 Jan 06:10:32 06:11:58 11° 64° (ENE) 06:13:23 437.568
CUTE-I 20 Jan 06:19:42 06:24:15 28° 97° (E) 06:28:47 437.470
XW-2B 20 Jan 06:20:02 06:23:26 32° 98° (E) 06:26:48 145.730 - 145.750
HO-68 20 Jan 06:22:25 06:26:39 16° 94° (E) 06:30:53 435.675
SO-50 20 Jan 06:34:13 06:38:18 36° 303° (WNW) 06:42:29 436.795
LilacSat-2 20 Jan 06:46:38 06:50:25 88° 275° (W) 06:54:09 437.200
KKS-1 20 Jan 06:47:26 06:49:00 12° 266° (W) 06:50:36 437.445
XW-2C 20 Jan 06:50:00 06:53:46 86° 277° (W) 06:57:29 145.795 - 145.815
SEEDS 20 Jan 06:54:39 06:56:19 12° 93° (E) 06:57:59 437.485
CUTE 1.7 + AOD 2 20 Jan 07:03:42 07:07:24 29° 97° (E) 07:11:03 437.475
STARS 20 Jan 07:04:03 07:07:14 20° 264° (W) 07:10:25 437.465
CUBEBUG 2 20 Jan 07:07:00 07:10:43 22° 95° (E) 07:14:23 437.445
UWE-3 20 Jan 07:15:15 07:17:43 14° 93° (E) 07:20:09 435.000/436.395/437.385
RS-15 20 Jan 07:18:40 07:28:51 32° 104° (ESE) 07:38:59 29.354- 29.394
KAITUO 1B 20 Jan 07:27:15 07:30:40 37° 285° (WNW) 07:34:04 145.475/437.950
XW-2F 20 Jan 07:27:41 07:30:53 27° 287° (WNW) 07:34:03 145.980 - 146.000
FALCONSAT 3 20 Jan 07:34:05 07:37:40 50° 4° (N) 07:41:15 435.103
FO-29 20 Jan 07:34:14 07:40:47 42° 72° (ENE) 07:46:38 435.910
XW-2D 20 Jan 07:37:05 07:39:46 19° 289° (WNW) 07:42:26 145.860 - 145.880
NUDT-PHONESAT 20 Jan 07:40:04 07:43:11 27° 287° (WNW) 07:46:16 437.300
ZACube-1 20 Jan 07:41:05 07:43:14 13° 92° (E) 07:45:22 437.345
STRAND 1 20 Jan 07:45:25 07:50:28 70° 258° (WSW) 07:55:34 437.568
AO-73 20 Jan 07:48:14 07:50:33 14° 93° (E) 07:52:50 145.935
XW-2B 20 Jan 07:55:44 07:57:14 12° 291° (WNW) 07:58:43 145.730 - 145.750
CUTE-I 20 Jan 07:59:40 08:04:09 29° 290° (WNW) 08:08:39 437.470
HO-68 20 Jan 08:07:43 08:14:50 71° 287° (WNW) 08:21:56 435.675
AAUSAT CUBESAT 2 20 Jan 08:12:14 08:16:11 45° 99° (E) 08:20:06 437.432
XW-2A 20 Jan 08:13:01 08:16:06 34° 99° (E) 08:19:09 145.665 - 145.685
Oscar 11 20 Jan 08:21:31 08:24:42 20° 95° (E) 08:27:52 .
SEEDS 20 Jan 08:28:14 08:32:06 38° 286° (WNW) 08:35:57 437.485
TIGRISAT 20 Jan 08:37:50 08:38:24 10° 65° (ENE) 08:38:57 435.000
CUTE 1.7 + AOD 2 20 Jan 08:40:13 08:42:56 17° 290° (WNW) 08:45:39 437.475
CUBEBUG 2 20 Jan 08:43:09 08:47:14 29° 288° (WNW) 08:51:16 437.445
UWE-3 20 Jan 08:49:52 08:54:17 43° 286° (WNW) 08:58:38 435.000/436.395/437.385
UNISAT 6 20 Jan 08:50:27 08:53:17 17° 68° (ENE) 08:56:10 437.425
PCSat 20 Jan 09:00:28 09:02:57 13° 103° (ESE) 09:05:27 145.827
FALCONSAT 3 20 Jan 09:13:12 09:16:51 76° 199° (SSW) 09:20:31 435.103
ZACube-1 20 Jan 09:15:22 09:19:40 43° 286° (WNW) 09:23:53 437.345
JUGNU 20 Jan 09:15:54 09:16:30 10° 162° (SSE) 09:17:05 437.505
FO-29 20 Jan 09:19:49 09:25:45 28° 262° (W) 09:31:12 435.910
AO-73 20 Jan 09:22:39 09:26:54 41° 286° (WNW) 09:31:04 145.935
RS-15 20 Jan 09:28:17 09:40:29 66° 301° (WNW) 09:52:38 29.354- 29.394
Max Valier Satellite 20 Jan 09:45:42 09:48:21 19° 95° (E) 09:50:59 145.860
BEESAT 3 20 Jan 09:47:41 09:51:31 51° 115° (ESE) 09:55:24 437.485
AAUSAT CUBESAT 2 20 Jan 09:50:09 09:51:09 11° 292° (WNW) 09:52:08 437.432
Oscar 11 20 Jan 09:57:10 10:00:45 26° 288° (WNW) 10:04:20 .
HO-68 20 Jan 10:00:36 10:01:17 10° 304° (WNW) 10:02:00 435.675
EO-88 20 Jan 10:06:02 10:08:51 21° 96° (E) 10:11:39 145.990 - 145.960
TIGRISAT 20 Jan 10:10:11 10:14:28 58° 260° (W) 10:18:54 435.000
UNISAT 6 20 Jan 10:25:42 10:29:39 33° 262° (W) 10:33:43 437.425
DELFI C3 20 Jan 10:30:45 10:34:36 58° 284° (WNW) 10:38:28 145.870
BEESAT 2 20 Jan 10:34:01 10:37:45 39° 113° (ESE) 10:41:31 435.950
PCSat 20 Jan 10:40:25 10:45:44 61° 297° (WNW) 10:51:06 145.827
YUBILEINY 20 Jan 10:46:45 10:55:22 60° 81° (E) 11:03:52 435.215
O/OREOS (USA 219) 20 Jan 10:47:37 10:51:35 30° 66° (ENE) 10:55:31 437.305
PRISM 20 Jan 10:49:50 10:53:54 89° 256° (WSW) 10:57:58 437.425
FALCONSAT 3 20 Jan 10:53:04 10:55:36 18° 211° (SSW) 10:58:07 435.103
POLYITAN 1 20 Jan 10:58:24 11:00:05 12° 67° (ENE) 11:01:46 437.675
JUGNU 20 Jan 11:00:44 11:04:50 20° 170° (S) 11:08:55 437.505
NANOSAT C BR1 20 Jan 11:13:38 11:16:15 16° 69° (ENE) 11:18:54 145.865
Max Valier Satellite 20 Jan 11:19:19 11:22:01 20° 289° (WNW) 11:24:42 145.860
QB50P2 20 Jan 11:25:48 11:29:29 30° 72° (ENE) 11:33:12 145.880/145.840
LO-87 20 Jan 11:27:10 11:30:17 26° 97° (E) 11:33:22 145.935 - 145.965
BEESAT 3 20 Jan 11:27:52 11:29:19 12° 310° (NW) 11:30:45 437.485
EO-88 20 Jan 11:39:55 11:42:16 17° 289° (WNW) 11:44:36 145.990 - 145.960
AO-85 20 Jan 11:40:43 11:43:51 23° 110° (ESE) 11:47:06 145.980
AIST 2D 20 Jan 11:42:47 11:46:05 37° 261° (W) 11:49:23 435.315
RS-15 20 Jan 11:47:57 11:55:52 19° 327° (NNW) 12:03:44 29.354- 29.394
DUCHIFAT 1 20 Jan 11:56:08 12:00:08 46° 74° (ENE) 12:04:10 145.980
EO-79 20 Jan 11:56:24 12:00:33 65° 76° (ENE) 12:04:45 145.935-145.965
ESTCUBE 1 20 Jan 12:04:22 12:08:49 64° 100° (E) 12:13:14 437.505/2401.250
SPROUT 20 Jan 12:10:10 12:12:25 14° 94° (E) 12:14:40 437.525
BEESAT 2 20 Jan 12:13:21 12:15:37 14° 308° (NW) 12:17:53 435.950
O/OREOS (USA 219) 20 Jan 12:27:38 12:30:42 18° 259° (W) 12:33:46 437.305
POLYITAN 1 20 Jan 12:31:23 12:35:24 44° 261° (W) 12:39:28 437.675
YUBILEINY 20 Jan 12:45:01 12:51:24 23° 277° (W) 12:57:46 435.215
NANOSAT C BR1 20 Jan 12:47:55 12:51:39 31° 262° (W) 12:55:26 145.865
JUGNU 20 Jan 12:48:38 12:53:14 24° 180° (S) 12:57:51 437.505
BUGSAT 1 20 Jan 12:59:50 13:03:46 53° 75° (ENE) 13:07:47 437.445
LO-87 20 Jan 13:01:30 13:03:22 14° 290° (WNW) 13:05:13 145.935 - 145.965
QB50P2 20 Jan 13:02:32 13:05:14 17° 265° (W) 13:08:00 145.880/145.840
Gurwin Techsat 1B 20 Jan 13:03:44 13:08:12 28° 69° (ENE) 13:12:40 435.225
SRMSAT 20 Jan 13:08:44 13:12:11 16° 166° (SSE) 13:15:37 437.500
AO-85 20 Jan 13:21:06 13:24:08 21° 307° (NW) 13:27:18 145.980
Oscar 19 20 Jan 13:21:35 13:26:40 59° 74° (ENE) 13:31:46 437.125/150
DUCHIFAT 1 20 Jan 13:35:06 13:35:58 11° 267° (W) 13:36:49 145.980
VELOX 1 20 Jan 13:42:47 13:47:11 82° 286° (WNW) 13:51:35 145.980
SPROUT 20 Jan 13:44:25 13:48:22 37° 287° (WNW) 13:52:19 437.525
UKube-1 20 Jan 13:53:20 13:53:52 10° 93° (E) 13:54:23 .
AO-91 20 Jan 13:55:21 13:58:34 42° 261° (W) 14:01:48 145.960
DX 1 20 Jan 14:01:14 14:04:49 25° 97° (E) 14:08:24 434.975-435.025
ITAMSAT 1 20 Jan 14:30:42 14:32:12 11° 63° (ENE) 14:33:42 435.822/435.867
